Abbotsford, British Columbia

9:35 AM PDT on April 26, 2017 (GMT -0700)
Abbotsford

Weather History for CYXX - November, 2012

Change the Weather History Date:

Tuesday, November 6, 2012

  Actual Average Record
Temperature  
Mean Temperature 48 °F -  
Max Temperature 52 °F 47 °F 63 °F (2014)
Min Temperature 45 °F 35 °F 23 °F (2003)
Degree Days  
Heating Degree Days 16    
Moisture  
Dew Point 46 °F    
Average Humidity 91    
Maximum Humidity 100    
Minimum Humidity 82    
Precipitation  
Precipitation 0.24 in 0.29 in - ()
Sea Level Pressure  
Sea Level Pressure 30.01 in    
Wind  
Wind Speed 5 mph ()    
Max Wind Speed 18 mph    
Max Gust Speed 22 mph    
Visibility 13.0 miles    
Events Rain    
Averages and records for this station are not official NWS values.
T = Trace of Precipitation, MM = Missing Value Source: Averaged Metar Reports

Daily Weather History Graph

Daily Weather History Graph

Search for Another Location

Airport or City:

Trip Planner

Search our weather history database for the weather conditions in past years. The results will help you decide how hot, cold, wet, or windy it might be!

Date:

Astronomy

Nov. 06, 2012 Rise Set
Actual Time 7:05 AM PST 4:39 PM PST
Civil Twilight 6:31 AM PST 5:13 PM PST
Nautical Twilight 5:54 AM PST 5:51 PM PST
Astronomical Twilight 5:17 AM PST 6:28 PM PST
Moon 11:31 PM PST (11/6) 12:55 PM PST (11/6)
Length of Visible Light 10h 41m
Length of Day
9h 34m
Waning Gibbous, 52% of the Moon is Illuminated
Nov 6
Waning Gibbous
Nov 6
Last Quarter
Nov 13
New
Nov 20
First Quarter
Nov 28
Full

Hourly Weather History & Observations

Time (PST) Temp. Windchill Dew Point Humidity Pressure Visibility Wind Dir Wind Speed Gust Speed Precip Events Conditions
12:00 AM 46.4 °F - 44.6 °F 93% 30.19 in 10.0 mi Calm Calm - N/A   Mostly Cloudy
1:00 AM 46.4 °F 45.2 °F 44.6 °F 93% 30.19 in 10.0 mi North 3.5 mph - N/A   Overcast
2:00 AM 48.2 °F - 46.4 °F 93% 30.17 in 10.0 mi NNE 4.6 mph - N/A   Overcast
3:00 AM 48.2 °F - 44.6 °F 87% 30.14 in 10.0 mi North 2.3 mph - N/A   Overcast
4:00 AM 47 °F - 46 °F 92% 30.11 in 7 mi ENE 4.6 mph - - Rain Light Rain Showers
4:00 AM 48.2 °F - 46.4 °F 93% 30.11 in 8.0 mi NE 4.6 mph - N/A Rain Light Rain Showers
5:00 AM 48.2 °F - 46.4 °F 93% 30.09 in 10.0 mi NE 4.6 mph - N/A   Overcast
6:00 AM 48.2 °F - 46.4 °F 93% 30.07 in 10.0 mi ENE 3.5 mph - N/A   Overcast
7:00 AM 48.2 °F - 46.4 °F 93% 30.05 in 30.0 mi NNE 3.5 mph - N/A   Mostly Cloudy
8:00 AM 48.2 °F - 46.4 °F 93% 30.06 in 30.0 mi North 8.1 mph - N/A   Overcast
8:52 AM 50.0 °F - 46.4 °F 87% 30.05 in 30.0 mi NNW 4.6 mph - N/A Rain Light Rain Showers
9:00 AM 50.0 °F - 46.4 °F 87% 30.01 in 20.0 mi North 8.1 mph - N/A Rain Light Rain Showers
10:00 AM 49 °F - 47 °F 89% 30.00 in 19 mi NNE 5.8 mph - - Rain Light Rain Showers
10:00 AM 50.0 °F - 46.4 °F 87% 30.00 in 20.0 mi NNE 6.9 mph - N/A Rain Light Rain Showers
11:00 AM 50.0 °F - 46.4 °F 87% 30.00 in 20.0 mi NE 4.6 mph - N/A   Overcast
12:00 PM 50.0 °F - 46.4 °F 87% 29.96 in 20.0 mi ENE 4.6 mph - N/A Rain Light Rain Showers
1:00 PM 48.2 °F - 46.4 °F 93% 29.94 in 2.0 mi Variable 18.4 mph - N/A Rain Rain Showers
1:06 PM 48.2 °F - 48.2 °F 100% 29.96 in 2.0 mi ESE 13.8 mph 21.9 mph N/A Rain Heavy Rain Showers
1:49 PM 48.2 °F - 46.4 °F 93% 29.95 in 8.0 mi NE 8.1 mph - N/A Rain Light Rain Showers
2:00 PM 48.2 °F - 46.4 °F 93% 29.93 in 10.0 mi NE 15.0 mph - N/A Rain Light Rain Showers
3:00 PM 48.2 °F - 46.4 °F 93% 29.94 in 10.0 mi North 6.9 mph - N/A Rain Light Rain Showers
4:00 PM 49 °F - 47 °F 92% 29.93 in 19 mi East 4.6 mph - - Rain Light Rain Showers
4:00 PM 48.2 °F - 46.4 °F 93% 29.93 in 20.0 mi East 4.6 mph - N/A   Mostly Cloudy
5:00 PM 48.2 °F - 46.4 °F 93% 29.91 in 15.0 mi ENE 4.6 mph - N/A   Mostly Cloudy
6:00 PM 48.2 °F - 46.4 °F 93% 29.92 in 15.0 mi NE 3.5 mph - N/A   Mostly Cloudy
7:00 PM 48.2 °F - 46.4 °F 93% 29.92 in 15.0 mi South 3.5 mph - N/A   Overcast
8:00 PM 50.0 °F - 46.4 °F 87% 29.94 in 15.0 mi SSW 8.1 mph - N/A   Partly Cloudy
9:00 PM 50.0 °F - 46.4 °F 87% 29.95 in 15.0 mi South 9.2 mph - N/A   Clear
10:00 PM 49 °F - 45 °F 83% 29.96 in 15 mi South 9.2 mph - -   Mostly Cloudy
10:00 PM 48.2 °F - 44.6 °F 87% 29.96 in 15.0 mi South 8.1 mph - N/A   Mostly Cloudy
11:00 PM 50.0 °F - 44.6 °F 82% 29.97 in 15.0 mi SSW 12.7 mph 19.6 mph N/A   Mostly Cloudy